Theta_e
334 335 338 339 338 338 336 334 334 333 331 332 332 332 334 334 334 336 335 346 349 351 356 358 359 359 357 355 354 352 347 347 347 347 350 349 349 351 351 351 349 348 347
332 333 335 338 339 338 337 335 334 333 332 332 334 335 336 337 337 339 340 343 349 349 352 354 356 357 358 356 354 352 347 347 348 348 350 349 349 351 352 352 350 350 348
334 332 335 338 338 339 337 335 334 334 333 333 332 334 334 334 335 339 343 344 337 341 340 343 343 343 353 356 355 353 350 348 348 350 348 347 349 350 351 352 352 352 350
339 338 340 342 341 338 338 338 336 332 330 329 329 331 333 338 341 344 342 340 335 338 337 336 342 341 351 353 354 354 353 350 348 348 347 348 349 350 350 351 351 351 349
344 344 344 343 344 343 342 338 335 332 330 330 332 335 335 337 339 341 338 340 335 336 336 338 342 345 350 351 353 354 353 350 348 347 346 347 348 349 350 350 350 350 350
347 345 345 346 344 342 339 338 333 331 328 326 333 332 331 335 336 334 334 338 338 335 335 336 339 343 348 350 350 350 351 351 350 348 345 345 346 346 345 346 347 348 349
349 346 344 344 342 340 337 337 335 331 328 326 325 325 327 333 330 330 331 331 332 335 337 340 341 340 339 342 343 345 348 349 349 349 345 342 345 344 344 345 345 345 346
347 346 342 342 340 338 337 336 333 331 329 327 323 321 318 324 327 330 330 331 330 333 336 335 335 335 336 336 338 342 344 345 346 348 344 342 345 345 345 344 345 346 345
346 343 341 337 335 336 336 335 335 331 328 329 329 326 321 321 326 330 329 330 330 329 330 332 333 333 334 336 338 339 341 341 343 344 345 344 344 344 344 344 345 345 344
338 337 336 334 331 329 328 329 327 330 333 325 332 332 329 329 322 320 324 325 321 325 324 325 322 330 331 331 334 335 335 337 338 339 339 341 343 345 344 344 345 343 346
330 330 328 326 324 323 323 320 316 315 318 316 318 317 319 318 315 310 310 309 312 314 316 313 322 324 324 323 323 326 326 330 331 333 334 335 337 340 343 342 343 343 344
318 319 320 318 316 314 312 312 310 310 310 309 310 310 308 307 306 304 302 303 303 307 309 311 313 316 315 314 316 319 320 322 321 321 324 328 333 336 338 341 341 341 337
310 310 312 311 311 310 309 307 306 306 306 305 305 305 304 304 303 303 301 301 300 302 305 307 309 312 309 308 310 314 315 318 318 320 321 323 327 330 333 337 336 333 333
307 309 311 309 308 307 306 304 303 304 303 304 304 303 302 302 302 301 299 298 295 296 299 299 305 307 305 305 309 313 310 312 318 315 316 316 319 324 328 332 333 329 328
311 310 307 304 303 303 302 301 300 301 301 302 302 302 301 301 301 300 298 297 296 294 295 299 298 303 303 303 306 307 306 310 313 313 314 316 318 320 323 326 328 327 326
308 306 303 302 301 301 300 299 299 301 301 301 302 301 300 300 299 299 298 296 295 295 296 298 300 301 301 303 305 305 304 310 310 310 313 315 313 315 319 322 324 324 326
306 305 302 301 301 300 299 298 299 301 301 300 301 301 302 301 299 299 298 297 296 298 298 301 302 303 302 301 302 302 304 303 304 308 312 313 311 312 315 317 319 322 323
304 302 302 301 301 300 298 298 298 299 299 300 301 301 301 303 300 300 299 298 297 299 299 298 301 302 302 303 302 301 302 304 302 307 312 310 309 310 312 312 314 315 317
301 300 300 300 300 300 299 298 298 298 298 299 300 300 300 300 300 303 301 302 302 302 302 300 299 302 303 305 304 303 302 302 304 308 309 308 308 308 312 311 311 312 311
300 300 300 301 300 300 299 299 298 297 297 299 300 300 300 302 304 303 302 302 301 300 301 300 300 300 301 303 303 302 301 303 302 305 305 304 306 306 311 311 312 314 311
301 302 301 300 299 299 299 298 297 296 296 297 298 300 301 307 307 305 303 302 302 301 301 298 298 297 297 296 296 300 300 301 302 304 301 299 299 301 305 311 312 310 308
299 300 299 297 295 299 298 300 298 295 296 295 295 297 299 305 303 303 303 304 303 300 300 299 298 296 295 296 297 297 298 298 298 305 300 298 298 299 301 309 308 307 306
296 297 295 295 294 295 297 297 300 295 295 295 295 298 300 303 301 299 300 302 302 303 304 301 299 298 296 297 297 296 297 298 297 300 299 295 296 297 300 305 306 306 305
295 295 294 293 293 295 296 296 298 295 295 296 300 301 301 301 300 297 299 299 300 301 302 302 302 302 300 298 298 299 299 299 300 300 299 294 297 301 302 307 304 304 303
296 296 295 294 293 292 295 295 295 295 296 295 299 302 301 299 297 296 298 298 297 299 302 302 301 300 298 297 298 300 298 297 297 298 301 299 300 301 303 305 309 306 304
296 298 296 295 296 292 295 294 294 293 293 294 296 297 300 297 295 295 295 296 295 297 298 301 302 303 303 301 300 299 299 297 297 297 302 299 301 301 298 305 306 309 307
Wind_Speed
4 4 4 3 4 3 4 4 4 4 6 6 5 6 7 7 6 5 4 11 13 15 15 15 17 15 15 15 15 12 14 15 17 17 19 19 21 18 18 18 18 17 15
4 4 4 4 4 4 4 4 4 5 6 5 7 6 7 6 6 6 3 5 15 21 23 25 23 19 16 16 15 17 15 15 17 18 19 17 18 18 18 17 17 17 16
5 4 4 4 5 4 4 4 4 4 5 4 6 5 5 6 5 4 2 2 3 13 21 29 30 33 20 14 15 16 15 16 19 19 15 15 15 16 19 19 18 18 17
5 5 4 4 4 3 2 2 3 4 4 4 4 5 5 4 2 4 5 4 3 2 9 7 18 17 32 20 18 16 16 18 14 15 13 13 13 16 18 18 17 17 18
6 5 4 4 3 1 2 2 2 2 2 3 4 5 2 4 4 3 6 3 3 5 5 10 19 19 24 20 16 16 15 12 14 13 15 16 15 15 16 15 14 14 16
8 7 5 4 2 1 2 2 2 2 2 3 5 7 5 4 4 5 5 4 4 4 6 5 8 11 15 16 17 19 18 15 12 15 16 14 16 16 16 14 13 13 16
4 2 1 3 1 1 3 4 2 2 2 3 4 5 3 6 6 4 4 5 5 5 4 5 6 5 6 15 15 17 20 21 16 18 18 15 13 17 16 12 13 14 16
4 3 3 4 6 3 4 3 3 3 1 3 2 2 6 5 3 4 4 3 5 3 4 5 7 7 7 7 10 17 20 23 25 19 18 17 16 17 14 14 15 15 15
9 7 6 4 4 2 3 4 4 5 3 2 3 3 3 3 5 5 6 5 7 5 6 7 8 6 9 8 9 11 18 21 25 27 21 17 17 18 17 15 16 16 13
11 10 9 8 8 5 7 7 7 4 3 4 2 2 3 3 4 5 4 5 9 7 10 8 8 7 8 7 14 18 20 22 23 24 25 24 23 21 20 17 17 15 13
11 11 11 10 10 7 8 9 8 8 6 4 4 4 3 3 4 3 6 6 8 6 6 9 9 7 9 10 10 15 23 23 23 24 24 23 23 22 21 21 18 14 13
7 10 11 9 7 7 7 6 6 8 6 5 3 4 3 3 4 3 4 6 6 4 10 6 7 6 7 9 15 22 23 23 23 23 23 24 23 20 19 18 19 12 9
5 6 7 8 7 7 8 6 6 6 5 4 5 3 3 3 2 3 3 6 5 4 3 4 5 4 8 8 10 23 23 20 22 23 21 21 21 21 21 16 10 7 5
4 5 9 9 10 8 6 6 4 4 5 5 7 6 4 4 3 3 3 5 7 3 3 6 4 5 9 10 17 27 10 22 19 18 20 23 19 17 19 16 17 19 23
7 9 9 9 8 8 6 6 4 5 5 5 6 5 2 3 3 3 3 2 2 8 10 4 6 7 9 9 13 11 12 19 23 19 20 21 20 16 13 16 16 23 26
7 8 9 8 7 6 6 6 5 5 6 4 3 5 4 3 3 3 3 2 2 3 6 4 9 9 10 10 15 13 12 20 20 21 19 18 21 18 12 13 14 18 23
7 8 7 6 6 6 6 6 5 6 5 4 4 5 6 5 4 4 4 3 3 3 8 12 11 13 12 10 11 12 11 9 9 20 19 15 19 20 14 10 10 14 17
6 6 5 6 6 6 6 7 6 4 4 6 6 6 7 6 7 6 4 6 5 6 6 14 13 11 13 11 10 11 10 8 7 15 13 15 18 17 15 13 8 11 16
6 6 6 7 6 6 6 5 5 5 5 5 6 6 6 6 6 8 7 8 9 9 8 9 12 11 10 10 11 8 7 7 7 16 10 14 15 17 15 15 11 10 10
6 6 5 5 5 5 5 5 5 5 5 6 6 6 6 6 9 10 9 9 8 8 8 8 9 10 10 11 9 8 8 6 8 8 8 12 13 14 14 13 13 11 6
4 4 5 6 6 6 7 7 6 5 6 6 6 6 6 11 15 13 7 8 9 7 7 9 8 10 10 11 12 9 8 7 8 2 8 8 6 6 6 7 9 11 11
6 6 7 7 7 6 15 14 8 5 5 5 6 7 7 10 13 16 17 16 12 9 9 7 6 10 12 11 9 9 8 7 4 2 6 9 3 5 5 4 9 10 8
5 6 6 7 6 7 16 14 11 4 5 5 6 6 7 8 11 11 14 15 13 16 12 10 10 9 10 12 11 10 9 7 5 7 4 4 3 7 5 5 7 8 10
5 5 7 6 6 7 13 13 9 5 6 6 6 5 8 9 11 12 11 11 12 10 11 8 9 9 7 9 9 8 6 7 6 3 1 3 3 7 5 6 7 5 9
6 6 5 6 6 5 13 15 10 6 6 6 6 7 6 9 14 16 10 12 13 12 13 16 15 14 10 11 8 6 5 6 5 4 3 3 3 6 3 4 5 8 9
5 5 6 6 8 5 10 13 11 4 5 5 6 6 10 11 16 15 9 9 11 12 13 14 12 11 9 7 10 3 5 6 5 3 2 5 3 4 4 3 4 4 5
Wind_Direction
201 203 230 240 242 227 241 262 262 268 267 261 255 242 266 267 266 269 274 294 287 293 289 275 260 251 245 236 229 210 219 228 246 251 245 241 240 238 238 239 238 240 232
199 213 242 256 248 211 222 243 253 261 264 261 276 263 265 267 263 273 328 321 358 4 356 336 309 276 250 234 229 212 225 244 251 261 249 238 235 236 243 238 239 236 239
208 204 228 250 256 238 249 254 267 263 266 281 275 282 275 274 274 288 71 110 51 42 19 3 348 336 303 245 235 226 239 244 255 257 252 246 232 231 235 239 239 237 233
191 205 224 233 240 212 229 247 265 275 277 265 271 272 261 283 356 171 185 185 137 75 66 51 282 277 283 269 256 249 250 247 258 263 261 255 238 233 231 230 234 241 241
192 209 226 246 230 226 239 274 275 264 294 300 279 274 299 283 237 258 253 225 205 204 197 211 262 275 271 263 268 279 281 256 249 263 259 254 241 232 228 224 228 238 245
196 202 213 233 256 270 307 307 322 348 337 321 300 297 288 277 261 268 289 284 279 294 270 260 276 281 281 286 286 288 296 290 260 251 253 249 245 240 228 216 222 227 237
194 147 121 227 26 346 13 26 8 352 305 323 325 316 291 263 273 300 280 259 260 261 291 284 290 281 297 294 294 296 300 301 292 276 266 258 248 243 237 217 222 223 229
86 125 64 28 33 7 9 26 16 331 313 331 326 281 318 333 328 281 276 287 308 311 320 303 283 294 293 301 303 301 305 304 305 300 278 261 250 247 244 237 223 222 225
47 43 49 7 358 359 5 10 11 4 339 316 295 316 321 283 330 323 319 337 360 350 351 345 349 323 308 300 305 304 310 310 313 313 310 285 264 259 254 241 238 228 216
54 56 53 55 61 49 46 39 23 10 6 19 336 327 261 275 313 311 346 345 0 359 348 349 328 334 340 344 340 337 331 324 323 318 317 309 301 292 263 247 241 242 217
51 54 57 56 47 45 48 48 38 31 32 35 11 332 336 319 41 307 309 331 327 359 350 328 334 354 7 9 355 353 349 346 338 329 320 316 311 300 288 257 241 229 238
48 53 63 64 61 55 49 43 40 39 32 35 24 23 30 5 334 337 307 322 301 311 310 341 351 4 358 350 339 338 338 336 335 332 329 318 307 308 296 273 245 230 264
48 38 58 57 54 48 47 41 43 42 27 36 21 30 28 22 354 330 306 314 309 304 340 308 348 339 342 336 330 333 333 332 328 330 332 330 310 299 291 270 211 167 304
81 62 67 64 57 52 47 38 39 32 29 36 39 33 19 13 15 358 325 330 330 324 335 318 320 335 338 331 329 333 331 330 328 339 336 335 324 300 288 266 196 201 197
71 68 69 66 51 46 42 41 45 34 33 27 28 21 8 352 2 345 344 347 332 329 325 312 329 307 318 320 316 322 323 318 326 328 329 341 333 311 286 265 229 203 216
78 78 67 60 52 44 38 40 34 21 38 11 4 3 358 317 315 304 299 295 238 253 294 293 299 301 305 309 310 320 311 319 316 324 320 340 350 351 316 264 237 230 228
71 72 70 69 58 47 31 39 30 22 19 355 352 3 353 341 337 332 323 317 308 283 294 306 312 319 303 293 298 306 304 305 313 318 324 353 348 344 344 312 255 246 228
76 88 81 71 57 44 31 32 20 356 10 7 352 355 349 349 341 328 321 307 288 289 287 308 315 313 310 304 284 281 292 302 307 313 341 352 348 343 348 341 309 252 242
88 71 64 57 48 38 22 6 8 359 1 354 352 350 334 332 348 347 333 331 342 336 320 319 320 323 319 318 315 290 278 289 299 315 332 337 336 338 327 350 325 302 252
78 75 71 72 49 35 5 352 1 5 8 8 356 346 342 352 359 347 346 343 336 326 332 326 322 326 328 332 316 317 309 304 306 317 329 325 317 326 314 342 3 348 320
90 84 73 62 38 28 5 358 9 14 17 14 4 4 353 8 359 348 332 325 320 325 324 336 333 335 335 339 341 328 317 308 301 341 329 316 319 316 315 339 345 17 17
67 72 68 66 38 23 2 12 34 37 19 19 9 349 331 4 351 340 336 334 329 327 323 326 333 347 332 332 329 327 326 340 334 331 329 315 337 311 300 306 332 349 20
78 80 80 65 35 21 8 8 17 10 37 24 12 355 354 358 355 344 341 340 340 341 340 332 321 324 326 332 321 324 334 335 316 307 335 300 336 327 321 310 310 325 332
75 93 80 60 46 25 12 9 8 12 20 20 360 340 2 348 354 347 340 338 343 346 343 331 327 309 309 320 316 313 305 300 289 277 321 300 319 337 321 354 10 351 325
51 71 91 58 43 17 17 17 14 8 5 1 346 348 352 349 345 340 342 338 337 341 341 336 328 314 295 302 312 318 333 329 327 318 1 306 315 329 320 351 11 22 335
72 87 69 41 29 17 20 23 18 357 358 354 344 339 341 346 338 341 347 333 338 336 330 331 336 333 321 302 305 303 309 320 322 295 13 335 321 343 333 343 330 343 356